Location: Beccas
(43.4309°N, 0.1528°E)
Time: 21:45:59
(UTC+00:00)

Cosmos 2297 Rocket - Pass Details

Date: 15 October 2021
Orbit: 839 x 843 km, 71.0° (Epoch: 29 November)

Event Time Altitude Azimuth Distance (km) Brightness Sun altitude
Rises 17:31:01 0° 335° (NNW) 3,405 5.6 -3.5°
Reaches altitude 10° 17:33:29 10° 337° (NNW) 2,467 4.8 -3.9°
Maximum altitude 17:39:09 81° 65° (ENE) 858 2.2 -5.0°
Drops below altitude 10° 17:44:48 10° 153° (SSE) 2,454 4.4 -6.0°
Sets 17:47:14 0° 154° (SSE) 3,385 5.1 -6.4°
